Location: St. Louis
(38.6270°N, 90.1994°W)
Time: 22:51:49
(UTC-05:00)

RS-15 - Pass Details

Date: 02 February 2022
Orbit: 1885 x 2159 km, 64.8° (Epoch: 30 May)

Event Time Altitude Azimuth Distance (km) Brightness Sun altitude
Rises 23:29:07 0° 325° (NW) 5,637 10.8 -65.8°
Reaches altitude 10° 23:33:11 10° 335° (NNW) 4,655 10.2 -66.1°
Enters shadow 23:36:54 20° 348° (NNW) 3,877 9.7 -66.4°
